����������;��������(kVARh)
2019-02-18 00:00;0
2019-02-18 00:15;0
2019-02-18 00:30;0,3
2019-02-18 00:45;1,35
2019-02-18 01:00;2,9
2019-02-18 01:15;0
2019-02-18 01:30;0
2019-02-18 01:45;0,2
2019-02-18 02:00;0
2019-02-18 02:15;0
2019-02-18 02:30;0
2019-02-18 02:45;0
2019-02-18 03:00;0
2019-02-18 03:15;0,1
2019-02-18 03:30;4,95
2019-02-18 03:45;6,55
2019-02-18 04:00;6,05
2019-02-18 04:15;6,9
2019-02-18 04:30;7,6
2019-02-18 04:45;7,35
2019-02-18 05:00;6,85
2019-02-18 05:15;6,7
2019-02-18 05:30;6,7
2019-02-18 05:45;6
2019-02-18 06:00;5
2019-02-18 06:15;3,7
2019-02-18 06:30;2,25
2019-02-18 06:45;1
2019-02-18 07:00;2,9
2019-02-18 07:15;4,35
2019-02-18 07:30;9,2
2019-02-18 07:45;14,7
2019-02-18 08:00;16,7
2019-02-18 08:15;23,45
2019-02-18 08:30;41,35
2019-02-18 08:45;51,5
2019-02-18 09:00;67
2019-02-18 09:15;88,75
2019-02-18 09:30;73,45
2019-02-18 09:45;67,3
2019-02-18 10:00;80,75
2019-02-18 10:15;91
2019-02-18 10:30;89,95
2019-02-18 10:45;88,1
2019-02-18 11:00;97,5
2019-02-18 11:15;96,45
2019-02-18 11:30;103,05
2019-02-18 11:45;99,9
2019-02-18 12:00;95,9
2019-02-18 12:15;98,55
2019-02-18 12:30;96
2019-02-18 12:45;97,85
2019-02-18 13:00;98,5
2019-02-18 13:15;100,3
2019-02-18 13:30;100,1
2019-02-18 13:45;100,8
2019-02-18 14:00;105
2019-02-18 14:15;95,7
2019-02-18 14:30;98,8
2019-02-18 14:45;95,2
2019-02-18 15:00;96,05
2019-02-18 15:15;88
2019-02-18 15:30;84,1
2019-02-18 15:45;86,45
2019-02-18 16:00;81,5
2019-02-18 16:15;76,1
2019-02-18 16:30;76,55
2019-02-18 16:45;79,15
2019-02-18 17:00;72,5
2019-02-18 17:15;63,9
2019-02-18 17:30;63,45
2019-02-18 17:45;62,85
2019-02-18 18:00;62,2
2019-02-18 18:15;60,8
2019-02-18 18:30;56,2
2019-02-18 18:45;50,95
2019-02-18 19:00;46,65
2019-02-18 19:15;41,9
2019-02-18 19:30;41,7
2019-02-18 19:45;41,15
2019-02-18 20:00;36,85
2019-02-18 20:15;27,35
2019-02-18 20:30;25,15
2019-02-18 20:45;24,55
2019-02-18 21:00;25,2
2019-02-18 21:15;22,6
2019-02-18 21:30;23,45
2019-02-18 21:45;21,15
2019-02-18 22:00;18,35
2019-02-18 22:15;16,6
2019-02-18 22:30;17,9
2019-02-18 22:45;17,3
2019-02-18 23:00;18,95
2019-02-18 23:15;15,05
2019-02-18 23:30;17,7
2019-02-18 23:45;14,35
2019-02-19 00:00;11,75
2019-02-19 00:15;21,3
2019-02-19 00:30;22,8
2019-02-19 00:45;23,8
2019-02-19 01:00;26,4
2019-02-19 01:15;19,45
2019-02-19 01:30;11,3
2019-02-19 01:45;10,7
2019-02-19 02:00;10,2
2019-02-19 02:15;10,4
2019-02-19 02:30;11,45
2019-02-19 02:45;12,3
2019-02-19 03:00;12,45
2019-02-19 03:15;12
2019-02-19 03:30;11,35
2019-02-19 03:45;15,7
2019-02-19 04:00;25,1
2019-02-19 04:15;25,55
2019-02-19 04:30;23,55
2019-02-19 04:45;24,85
2019-02-19 05:00;24,2
2019-02-19 05:15;24,55
2019-02-19 05:30;24,25
2019-02-19 05:45;22,5
2019-02-19 06:00;22,05
2019-02-19 06:15;20,4
2019-02-19 06:30;18,7
2019-02-19 06:45;14,85
2019-02-19 07:00;17,5
2019-02-19 07:15;18,4
2019-02-19 07:30;50,2
2019-02-19 07:45;36,95
2019-02-19 08:00;33,8
2019-02-19 08:15;31,9
2019-02-19 08:30;34,95
2019-02-19 08:45;41,95
2019-02-19 09:00;50
2019-02-19 09:15;54,85
2019-02-19 09:30;57,05
2019-02-19 09:45;58,8
2019-02-19 10:00;62,35
2019-02-19 10:15;71,2
2019-02-19 10:30;73,45
2019-02-19 10:45;71,4
2019-02-19 11:00;76,55
2019-02-19 11:15;72,65
2019-02-19 11:30;74,45
2019-02-19 11:45;75,35
2019-02-19 12:00;76,15
2019-02-19 12:15;78,7
2019-02-19 12:30;75
2019-02-19 12:45;80,5
2019-02-19 13:00;82,75
2019-02-19 13:15;73,9
2019-02-19 13:30;75,05
2019-02-19 13:45;76,45
2019-02-19 14:00;72,9
2019-02-19 14:15;75,2
2019-02-19 14:30;67,65
2019-02-19 14:45;65,25
2019-02-19 15:00;71,15
2019-02-19 15:15;62,85
2019-02-19 15:30;66,9
2019-02-19 15:45;58,4
2019-02-19 16:00;60,85
2019-02-19 16:15;62
2019-02-19 16:30;60,1
2019-02-19 16:45;55,95
2019-02-19 17:00;46,5
2019-02-19 17:15;46,75
2019-02-19 17:30;38,35
2019-02-19 17:45;35,3
2019-02-19 18:00;34
2019-02-19 18:15;26,3
2019-02-19 18:30;25,55
2019-02-19 18:45;23,1
2019-02-19 19:00;24,55
2019-02-19 19:15;23,8
2019-02-19 19:30;22,05
2019-02-19 19:45;21,9
2019-02-19 20:00;19,45
2019-02-19 20:15;14,2
2019-02-19 20:30;14,1
2019-02-19 20:45;15,8
2019-02-19 21:00;16,55
2019-02-19 21:15;14,95
2019-02-19 21:30;12,4
2019-02-19 21:45;11,75
2019-02-19 22:00;8,3
2019-02-19 22:15;7,75
2019-02-19 22:30;8,25
2019-02-19 22:45;9,85
2019-02-19 23:00;9,6
2019-02-19 23:15;8,65
2019-02-19 23:30;8,7
2019-02-19 23:45;9,25
2019-02-20 00:00;7,4
2019-02-20 00:15;4,8
2019-02-20 00:30;3,2
2019-02-20 00:45;2,95
2019-02-20 01:00;6,95
2019-02-20 01:15;15,55
2019-02-20 01:30;15,25
2019-02-20 01:45;15,1
2019-02-20 02:00;15,85
2019-02-20 02:15;16,05
2019-02-20 02:30;15,6
2019-02-20 02:45;14,95
2019-02-20 03:00;13,95
2019-02-20 03:15;15,7
2019-02-20 03:30;14,65
2019-02-20 03:45;16,95
2019-02-20 04:00;15,25
2019-02-20 04:15;12,55
2019-02-20 04:30;15,05
2019-02-20 04:45;15,45
2019-02-20 05:00;15,7
2019-02-20 05:15;13,3
2019-02-20 05:30;14,7
2019-02-20 05:45;15,2
2019-02-20 06:00;15,65
2019-02-20 06:15;12,8
2019-02-20 06:30;9,65
2019-02-20 06:45;11,15
2019-02-20 07:00;13,45
2019-02-20 07:15;20
2019-02-20 07:30;43,7
2019-02-20 07:45;21,2
2019-02-20 08:00;21,55
2019-02-20 08:15;22,3
2019-02-20 08:30;24,15
2019-02-20 08:45;37,85
2019-02-20 09:00;49,8
2019-02-20 09:15;50,6
2019-02-20 09:30;64,55
2019-02-20 09:45;58,7
2019-02-20 10:00;59,15
2019-02-20 10:15;68,5
2019-02-20 10:30;67,35
2019-02-20 10:45;63,6
2019-02-20 11:00;71,1
2019-02-20 11:15;67,9
2019-02-20 11:30;67,4
2019-02-20 11:45;64,95
2019-02-20 12:00;66,15
2019-02-20 12:15;63,85
2019-02-20 12:30;64,2
2019-02-20 12:45;66,45
2019-02-20 13:00;65,5
2019-02-20 13:15;63,7
2019-02-20 13:30;61,6
2019-02-20 13:45;71
2019-02-20 14:00;71,9
2019-02-20 14:15;64,3
2019-02-20 14:30;64
2019-02-20 14:45;64,8
2019-02-20 15:00;54,1
2019-02-20 15:15;52,35
2019-02-20 15:30;53,1
2019-02-20 15:45;43,5
2019-02-20 16:00;46,85
2019-02-20 16:15;43,5
2019-02-20 16:30;46,95
2019-02-20 16:45;43
2019-02-20 17:00;36,65
2019-02-20 17:15;31,4
2019-02-20 17:30;43,2
2019-02-20 17:45;36,25
2019-02-20 18:00;33,2
2019-02-20 18:15;25,25
2019-02-20 18:30;26,35
2019-02-20 18:45;23,15
2019-02-20 19:00;25,4
2019-02-20 19:15;26,35
2019-02-20 19:30;22,55
2019-02-20 19:45;23,5
2019-02-20 20:00;23,95
2019-02-20 20:15;23,2
2019-02-20 20:30;22,05
2019-02-20 20:45;27,05
2019-02-20 21:00;30,95
2019-02-20 21:15;30,2
2019-02-20 21:30;25,95
2019-02-20 21:45;20,65
2019-02-20 22:00;19,75
2019-02-20 22:15;18,8
2019-02-20 22:30;19,65
2019-02-20 22:45;20,85
2019-02-20 23:00;23
2019-02-20 23:15;14,45
2019-02-20 23:30;16,25
2019-02-20 23:45;17,5
2019-02-21 00:00;14,25
2019-02-21 00:15;14,25
2019-02-21 00:30;13
2019-02-21 00:45;13
2019-02-21 01:00;13,15
2019-02-21 01:15;8,2
2019-02-21 01:30;16,5
2019-02-21 01:45;16,25
2019-02-21 02:00;16,75
2019-02-21 02:15;16,85
2019-02-21 02:30;17,7
2019-02-21 02:45;16,85
2019-02-21 03:00;17,4
2019-02-21 03:15;16,2
2019-02-21 03:30;15,8
2019-02-21 03:45;13,8
2019-02-21 04:00;15,4
2019-02-21 04:15;13,65
2019-02-21 04:30;11,55
2019-02-21 04:45;12,65
2019-02-21 05:00;16
2019-02-21 05:15;15,45
2019-02-21 05:30;11,65
2019-02-21 05:45;9,25
2019-02-21 06:00;10,45
2019-02-21 06:15;7,8
2019-02-21 06:30;8,55
2019-02-21 06:45;7,6
2019-02-21 07:00;9,05
2019-02-21 07:15;12,9
2019-02-21 07:30;36,55
2019-02-21 07:45;9,95
2019-02-21 08:00;24,3
2019-02-21 08:15;19,95
2019-02-21 08:30;32,25
2019-02-21 08:45;38,5
2019-02-21 09:00;37,5
2019-02-21 09:15;51,15
2019-02-21 09:30;51,45
2019-02-21 09:45;50
2019-02-21 10:00;54,15
2019-02-21 10:15;50,85
2019-02-21 10:30;52,2
2019-02-21 10:45;62
2019-02-21 11:00;55,65
2019-02-21 11:15;54,65
2019-02-21 11:30;56,9
2019-02-21 11:45;52,25
2019-02-21 12:00;56,2
2019-02-21 12:15;54,9
2019-02-21 12:30;55,35
2019-02-21 12:45;57,5
2019-02-21 13:00;52,95
2019-02-21 13:15;57,55
2019-02-21 13:30;59,4
2019-02-21 13:45;58,55
2019-02-21 14:00;67,9
2019-02-21 14:15;62,45
2019-02-21 14:30;56,95
2019-02-21 14:45;61
2019-02-21 15:00;56,1
2019-02-21 15:15;60,65
2019-02-21 15:30;53,85
2019-02-21 15:45;47,1
2019-02-21 16:00;51,6
2019-02-21 16:15;44,35
2019-02-21 16:30;48,25
2019-02-21 16:45;39,8
2019-02-21 17:00;34
2019-02-21 17:15;28,45
2019-02-21 17:30;34,05
2019-02-21 17:45;27,95
2019-02-21 18:00;26,85
2019-02-21 18:15;23,65
2019-02-21 18:30;17,65
2019-02-21 18:45;19,25
2019-02-21 19:00;17,3
2019-02-21 19:15;15,95
2019-02-21 19:30;15
2019-02-21 19:45;14,1
2019-02-21 20:00;14,95
2019-02-21 20:15;15,45
2019-02-21 20:30;19,75
2019-02-21 20:45;18,35
2019-02-21 21:00;18,85
2019-02-21 21:15;19,35
2019-02-21 21:30;19,5
2019-02-21 21:45;17,3
2019-02-21 22:00;14,55
2019-02-21 22:15;13,3
2019-02-21 22:30;14,85
2019-02-21 22:45;18,1
2019-02-21 23:00;19,55
2019-02-21 23:15;17,15
2019-02-21 23:30;17,2
2019-02-21 23:45;18,7
2019-02-22 00:00;20,5
2019-02-22 00:15;17,25
2019-02-22 00:30;10,35
2019-02-22 00:45;12,65
2019-02-22 01:00;8,95
2019-02-22 01:15;4,7
2019-02-22 01:30;5,75
2019-02-22 01:45;9
2019-02-22 02:00;11,5
2019-02-22 02:15;9,95
2019-02-22 02:30;9,8
2019-02-22 02:45;8,4
2019-02-22 03:00;9,55
2019-02-22 03:15;11,05
2019-02-22 03:30;12,8
2019-02-22 03:45;12,55
2019-02-22 04:00;10,75
2019-02-22 04:15;11,25
2019-02-22 04:30;13,1
2019-02-22 04:45;12,55
2019-02-22 05:00;14,65
2019-02-22 05:15;12,25
2019-02-22 05:30;10,4
2019-02-22 05:45;10,6
2019-02-22 06:00;11,3
2019-02-22 06:15;10,95
2019-02-22 06:30;11,15
2019-02-22 06:45;8,85
2019-02-22 07:00;7,75
2019-02-22 07:15;11,4
2019-02-22 07:30;39,1
2019-02-22 07:45;17,65
2019-02-22 08:00;22,45
2019-02-22 08:15;18,9
2019-02-22 08:30;28
2019-02-22 08:45;27,8
2019-02-22 09:00;39,05
2019-02-22 09:15;32,3
2019-02-22 09:30;37,25
2019-02-22 09:45;44,55
2019-02-22 10:00;43,25
2019-02-22 10:15;51
2019-02-22 10:30;53
2019-02-22 10:45;55,95
2019-02-22 11:00;59,55
2019-02-22 11:15;56,35
2019-02-22 11:30;61,15
2019-02-22 11:45;59,65
2019-02-22 12:00;58,35
2019-02-22 12:15;66,3
2019-02-22 12:30;65,1
2019-02-22 12:45;61,05
2019-02-22 13:00;63,85
2019-02-22 13:15;67,75
2019-02-22 13:30;59,45
2019-02-22 13:45;62,7
2019-02-22 14:00;59,75
2019-02-22 14:15;62,3
2019-02-22 14:30;61,85
2019-02-22 14:45;55,85
2019-02-22 15:00;51,55
2019-02-22 15:15;41,7
2019-02-22 15:30;36,05
2019-02-22 15:45;29,05
2019-02-22 16:00;27,55
2019-02-22 16:15;21,45
2019-02-22 16:30;21
2019-02-22 16:45;25,2
2019-02-22 17:00;20,75
2019-02-22 17:15;24,1
2019-02-22 17:30;18,3
2019-02-22 17:45;21,35
2019-02-22 18:00;21,65
2019-02-22 18:15;22,45
2019-02-22 18:30;15,65
2019-02-22 18:45;18,05
2019-02-22 19:00;16,4
2019-02-22 19:15;16,55
2019-02-22 19:30;17
2019-02-22 19:45;15,05
2019-02-22 20:00;11,9
2019-02-22 20:15;11,2
2019-02-22 20:30;12,2
2019-02-22 20:45;11,45
2019-02-22 21:00;8,55
2019-02-22 21:15;9,8
2019-02-22 21:30;8,6
2019-02-22 21:45;5,3
2019-02-22 22:00;1,6
2019-02-22 22:15;2,1
2019-02-22 22:30;2,95
2019-02-22 22:45;0,05
2019-02-22 23:00;0,7
2019-02-22 23:15;0,25
2019-02-22 23:30;0,55
2019-02-22 23:45;0,25
2019-02-23 00:00;0
2019-02-23 00:15;0
2019-02-23 00:30;0
2019-02-23 00:45;0,05
2019-02-23 01:00;0,35
2019-02-23 01:15;0,15
2019-02-23 01:30;0,1
2019-02-23 01:45;0
2019-02-23 02:00;1,1
2019-02-23 02:15;1,2
2019-02-23 02:30;0,45
2019-02-23 02:45;0,7
2019-02-23 03:00;1,85
2019-02-23 03:15;1,7
2019-02-23 03:30;0,65
2019-02-23 03:45;1,5
2019-02-23 04:00;1,35
2019-02-23 04:15;0,95
2019-02-23 04:30;1,25
2019-02-23 04:45;3,45
2019-02-23 05:00;2,15
2019-02-23 05:15;0,75
2019-02-23 05:30;1
2019-02-23 05:45;1,9
2019-02-23 06:00;1,65
2019-02-23 06:15;0,25
2019-02-23 06:30;0
2019-02-23 06:45;0,15
2019-02-23 07:00;0,05
2019-02-23 07:15;1,95
2019-02-23 07:30;0,25
2019-02-23 07:45;0,9
2019-02-23 08:00;4,55
2019-02-23 08:15;2,4
2019-02-23 08:30;2,55
2019-02-23 08:45;1,5
2019-02-23 09:00;0,3
2019-02-23 09:15;0,15
2019-02-23 09:30;0,05
2019-02-23 09:45;1,35
2019-02-23 10:00;1,75
2019-02-23 10:15;2,95
2019-02-23 10:30;3,35
2019-02-23 10:45;2,95
2019-02-23 11:00;3,55
2019-02-23 11:15;3,95
2019-02-23 11:30;6,7
2019-02-23 11:45;8,15
2019-02-23 12:00;6,75
2019-02-23 12:15;6,45
2019-02-23 12:30;6,75
2019-02-23 12:45;7,4
2019-02-23 13:00;13,3
2019-02-23 13:15;10,45
2019-02-23 13:30;11,65
2019-02-23 13:45;14
2019-02-23 14:00;13,8
2019-02-23 14:15;12,85
2019-02-23 14:30;14
2019-02-23 14:45;13,1
2019-02-23 15:00;10,55
2019-02-23 15:15;12,5
2019-02-23 15:30;12,25
2019-02-23 15:45;10,85
2019-02-23 16:00;10,15
2019-02-23 16:15;12,3
2019-02-23 16:30;12,7
2019-02-23 16:45;10,25
2019-02-23 17:00;10,25
2019-02-23 17:15;9,05
2019-02-23 17:30;5,4
2019-02-23 17:45;5,6
2019-02-23 18:00;5,8
2019-02-23 18:15;6,3
2019-02-23 18:30;8,4
2019-02-23 18:45;9,35
2019-02-23 19:00;7,65
2019-02-23 19:15;5
2019-02-23 19:30;4,05
2019-02-23 19:45;3,4
2019-02-23 20:00;2,95
2019-02-23 20:15;2,55
2019-02-23 20:30;3,75
2019-02-23 20:45;3,4
2019-02-23 21:00;5,45
2019-02-23 21:15;5,95
2019-02-23 21:30;4,85
2019-02-23 21:45;1,45
2019-02-23 22:00;1,4
2019-02-23 22:15;1,05
2019-02-23 22:30;0,25
2019-02-23 22:45;0
2019-02-23 23:00;0,3
2019-02-23 23:15;0,1
2019-02-23 23:30;0,75
2019-02-23 23:45;0
2019-02-24 00:00;0
2019-02-24 00:15;0
2019-02-24 00:30;0
2019-02-24 00:45;0
2019-02-24 01:00;0
2019-02-24 01:15;0
2019-02-24 01:30;0
2019-02-24 01:45;0
2019-02-24 02:00;0
2019-02-24 02:15;0
2019-02-24 02:30;0
2019-02-24 02:45;0
2019-02-24 03:00;0
2019-02-24 03:15;0
2019-02-24 03:30;0
2019-02-24 03:45;0
2019-02-24 04:00;0
2019-02-24 04:15;0
2019-02-24 04:30;0
2019-02-24 04:45;0
2019-02-24 05:00;0
2019-02-24 05:15;0
2019-02-24 05:30;0
2019-02-24 05:45;0
2019-02-24 06:00;0
2019-02-24 06:15;0
2019-02-24 06:30;0
2019-02-24 06:45;0
2019-02-24 07:00;0
2019-02-24 07:15;0
2019-02-24 07:30;0
2019-02-24 07:45;0
2019-02-24 08:00;0
2019-02-24 08:15;0
2019-02-24 08:30;0,3
2019-02-24 08:45;0,35
2019-02-24 09:00;0,7
2019-02-24 09:15;0,05
2019-02-24 09:30;0,05
2019-02-24 09:45;0
2019-02-24 10:00;0
2019-02-24 10:15;0
2019-02-24 10:30;0
2019-02-24 10:45;0,05
2019-02-24 11:00;1
2019-02-24 11:15;1,05
2019-02-24 11:30;0,9
2019-02-24 11:45;1,8
2019-02-24 12:00;2,65
2019-02-24 12:15;2,75
2019-02-24 12:30;3,9
2019-02-24 12:45;5,1
2019-02-24 13:00;4,4
2019-02-24 13:15;3,15
2019-02-24 13:30;4,1
2019-02-24 13:45;5,15
2019-02-24 14:00;6,05
2019-02-24 14:15;7,45
2019-02-24 14:30;10,15
2019-02-24 14:45;8,95
2019-02-24 15:00;7,5
2019-02-24 15:15;8,8
2019-02-24 15:30;9,2
2019-02-24 15:45;6,85
2019-02-24 16:00;7,15
2019-02-24 16:15;8,45
2019-02-24 16:30;10,3
2019-02-24 16:45;11,05
2019-02-24 17:00;10,2
2019-02-24 17:15;8,25
2019-02-24 17:30;8,65
2019-02-24 17:45;10
2019-02-24 18:00;11,6
2019-02-24 18:15;10,1
2019-02-24 18:30;6,85
2019-02-24 18:45;6,55
2019-02-24 19:00;9,05
2019-02-24 19:15;8,5
2019-02-24 19:30;10,3
2019-02-24 19:45;8,05
2019-02-24 20:00;6,6
2019-02-24 20:15;9,45
2019-02-24 20:30;11,3
2019-02-24 20:45;9,1
2019-02-24 21:00;9,45
2019-02-24 21:15;11,05
2019-02-24 21:30;13,9
2019-02-24 21:45;7,85
2019-02-24 22:00;6,05
2019-02-24 22:15;5,6
2019-02-24 22:30;9,45
2019-02-24 22:45;7,9
2019-02-24 23:00;8,6
2019-02-24 23:15;8,75
2019-02-24 23:30;11,15
2019-02-24 23:45;7,8

